sat.trackr.live / text

‹ back to catalog

STARLINK-32438

NORAD 61722 · 2024-196R

PAYLOAD ACTIVE UNKNOWN

§ Identity

Operator
Country
US
Launch date
2024-10-30
Launch site
AFETR
Launch vehicle
Mass (kg)
RCS (m²)

Purposes: comms

External: N2YO · Heavens-Above · Gunter

§ Orbital elements

Epoch: 2026-05-25T02:40:09.693984Z

Period
94.11 min
Inclination
53.1602°
Eccentricity
0.0001289
Mean motion
15.30196304 rev/d
Perigee alt
474.3 km
Apogee alt
476.1 km
Semi-major
6,853.4 km
B*
4.0736e-6
RAAN
106.6133°
Arg perigee
86.2922°
Mean anomaly
273.8226°
Rev number
8,885

§ Raw data

STARLINK-324381 61722U 24196R   26145.11122331 -.00000239  00000+0  40736-5 0  99912 61722  53.1602 106.6133 0001289  86.2922 273.8226 15.30196304 88857

JSON: /api/v1/satellites/61722 · /tle

For live sub-satellite position, see the globe view (requires WebGL).

§ Visibility from observer

Set your observer location to see the next 7 days of passes ≥ 10°. The values pass through the URL so the page stays shareable.

No JS? Fill the form by hand. The geolocation button needs JavaScript.